TimeEDT,TemperatureF,Dew PointF,Humidity,Sea Level PressureIn,VisibilityMPH,Wind Direction,Wind SpeedMPH,Gust SpeedMPH,PrecipitationIn,Events,Conditions,WindDirDegrees,DateUTC
12:51 AM,42.1,30.0,62,29.93,10.0,WSW,11.5,17.3,N/A,,Overcast,240,2013-04-20 04:51:00
1:51 AM,41.0,27.0,57,29.95,10.0,WNW,10.4,21.9,N/A,,Overcast,290,2013-04-20 05:51:00
2:51 AM,39.0,28.0,65,29.99,10.0,West,11.5,19.6,0.00,Rain,Light Rain,260,2013-04-20 06:51:00
3:51 AM,37.9,24.1,57,30.02,10.0,West,12.7,19.6,0.00,,Clear,270,2013-04-20 07:51:00
4:51 AM,36.0,21.9,57,30.04,10.0,West,6.9,16.1,N/A,,Clear,280,2013-04-20 08:51:00
5:51 AM,36.0,23.0,59,30.05,10.0,WSW,9.2,18.4,N/A,,Scattered Clouds,250,2013-04-20 09:51:00
6:51 AM,36.0,24.1,62,30.08,10.0,West,10.4,19.6,N/A,,Mostly Cloudy,260,2013-04-20 10:51:00
7:51 AM,37.0,26.1,65,30.11,10.0,West,11.5,19.6,N/A,,Overcast,270,2013-04-20 11:51:00
8:03 AM,37.4,24.8,60,30.07,10.0,West,10.4,23.0,N/A,,Overcast,270,2013-04-20 12:03:00
8:24 AM,37.4,24.8,60,30.07,10.0,WNW,11.5,20.7,N/A,,Mostly Cloudy,290,2013-04-20 12:24:00
8:51 AM,37.0,25.0,62,30.13,10.0,Variable,6.9,20.7,0.00,,Overcast,0,2013-04-20 12:51:00
9:51 AM,37.9,25.0,60,30.14,10.0,West,12.7,26.5,N/A,,Mostly Cloudy,280,2013-04-20 13:51:00
10:51 AM,39.9,25.0,55,30.18,10.0,West,10.4,24.2,N/A,,Mostly Cloudy,270,2013-04-20 14:51:00
11:51 AM,44.1,26.1,49,30.17,10.0,West,12.7,24.2,N/A,,Mostly Cloudy,260,2013-04-20 15:51:00
12:51 PM,46.0,26.1,46,30.17,10.0,WSW,10.4,24.2,N/A,,Mostly Cloudy,250,2013-04-20 16:51:00
1:51 PM,46.0,25.0,44,30.17,10.0,WNW,12.7,21.9,N/A,,Mostly Cloudy,290,2013-04-20 17:51:00
2:51 PM,50.0,24.1,36,30.17,10.0,WSW,15.0,24.2,N/A,,Scattered Clouds,250,2013-04-20 18:51:00
3:51 PM,52.0,25.0,35,30.18,10.0,West,10.4,18.4,N/A,,Scattered Clouds,270,2013-04-20 19:51:00
4:51 PM,50.0,21.9,33,30.20,10.0,West,11.5,17.3,N/A,,Clear,260,2013-04-20 20:51:00
5:51 PM,48.9,21.0,33,30.22,10.0,WNW,13.8,19.6,N/A,,Mostly Cloudy,300,2013-04-20 21:51:00
6:51 PM,48.9,19.9,32,30.24,10.0,NNW,10.4,-,N/A,,Mostly Cloudy,340,2013-04-20 22:51:00
7:51 PM,46.0,19.0,34,30.27,10.0,WNW,9.2,-,N/A,,Clear,300,2013-04-20 23:51:00
8:51 PM,43.0,19.9,40,30.32,10.0,NW,5.8,-,N/A,,Clear,320,2013-04-21 00:51:00
9:51 PM,39.9,21.9,49,30.37,10.0,NNW,3.5,-,N/A,,Clear,340,2013-04-21 01:51:00
10:51 PM,39.0,21.0,49,30.39,10.0,NNW,5.8,-,N/A,,Clear,330,2013-04-21 02:51:00
11:51 PM,35.1,24.1,64,30.41,10.0,Calm,Calm,-,N/A,,Clear,0,2013-04-21 03:51:00